,,Stat6,,Stat2,,Stat8,,Stat9,,Stat10,,Wind1,,Wind1,
time,status,PA1M_AVG,status,PR1M_SUM,status,RH1M_AVG,status,SR1M_AVG,status,TA1M_AVG,status,W1dAve1m,status,W1sAve1m,
2007-11-27, 00:00:00,VALID,919.201,VALID,0,VALID,100,VALID,0.0169808,VALID,19.9119,VALID,348,VALID,0.518674,
2007-11-27, 00:01:00,VALID,919.199,VALID,0,VALID,100,VALID,0.0169808,VALID,19.9055,VALID,323,VALID,0.506541,
2007-11-27, 00:02:00,VALID,919.178,VALID,0,VALID,100,VALID,0.0339617,VALID,19.8957,VALID,357,VALID,0.69122,
2007-11-27, 00:03:00,VALID,919.163,VALID,0,VALID,100,VALID,0.0169808,VALID,19.88,VALID,1,VALID,0.66183,
2007-11-27, 00:04:00,VALID,919.137,VALID,0,VALID,100,VALID,0.0169808,VALID,19.8565,VALID,2,VALID,0.109961,
2007-11-27, 00:05:00,VALID,919.124,VALID,0,VALID,100,VALID,0,VALID,19.8471,VALID,3,VALID,0.0204861,
2007-11-27, 00:06:00,VALID,919.108,VALID,0,VALID,100,VALID,0.0509425,VALID,19.8271,VALID,7,VALID,0.608445,
2007-11-27, 00:07:00,VALID,919.095,VALID,0,VALID,100,VALID,0.0679233,VALID,19.8049,VALID,2,VALID,0.95957,
2007-11-27, 00:08:00,VALID,919.087,VALID,0,VALID,100,VALID,0.0339617,VALID,19.7854,VALID,344,VALID,0.649148,
2007-11-27, 00:09:00,VALID,919.065,VALID,0,VALID,100,VALID,-0.0169808,VALID,19.7792,VALID,338,VALID,0.226393,
2007-11-27, 00:10:00,VALID,919.051,VALID,0,VALID,100,VALID,0,VALID,19.7757,VALID,337,VALID,0,
2007-11-27, 00:11:00,VALID,919.027,VALID,0,VALID,100,VALID,0.0169808,VALID,19.7792,VALID,337,VALID,0,
2007-11-27, 00:12:00,VALID,919.004,VALID,0,VALID,100,VALID,0.0169808,VALID,19.7759,VALID,337,VALID,0,
2007-11-27, 00:13:00,VALID,918.966,VALID,0,VALID,100,VALID,0,VALID,19.7562,VALID,360,VALID,0,
2007-11-27, 00:14:00,VALID,918.937,VALID,0,VALID,100,VALID,0,VALID,19.7497,VALID,7,VALID,0.100836,
2007-11-27, 00:15:00,VALID,918.91,VALID,0,VALID,100,VALID,0,VALID,19.737,VALID,12,VALID,0.784201,
2007-11-27, 00:16:00,VALID,918.894,VALID,0,VALID,100,VALID,0,VALID,19.734,VALID,11,VALID,1.04421,
2007-11-27, 00:17:00,VALID,918.884,VALID,0,VALID,100,VALID,0.0169808,VALID,19.7173,VALID,5,VALID,1.09268,
2007-11-27, 00:18:00,VALID,918.866,VALID,0,VALID,100,VALID,0.0169808,VALID,19.7011,VALID,8,VALID,1.04368,
2007-11-27, 00:19:00,VALID,918.842,VALID,0,VALID,100,VALID,0,VALID,19.6883,VALID,5,VALID,0.94992,
2007-11-27, 00:20:00,VALID,918.823,VALID,0,VALID,100,VALID,0.0339617,VALID,19.6586,VALID,6,VALID,1.03367,
2007-11-27, 00:21:00,VALID,918.788,VALID,0,VALID,100,VALID,0.0339617,VALID,19.6556,VALID,356,VALID,0.880814,
2007-11-27, 00:22:00,VALID,918.756,VALID,0,VALID,100,VALID,0.0169808,VALID,19.6491,VALID,355,VALID,0.552326,
2007-11-27, 00:23:00,VALID,918.702,VALID,0,VALID,100,VALID,0.0509425,VALID,19.6357,VALID,8,VALID,0.739644,
2007-11-27, 00:24:00,VALID,918.656,VALID,0,VALID,100,VALID,0.0169808,VALID,19.6332,VALID,354,VALID,0.6962,
2007-11-27, 00:25:00,VALID,918.614,VALID,0,VALID,100,VALID,0,VALID,19.6204,VALID,4,VALID,0.416667,
2007-11-27, 00:26:00,VALID,918.581,VALID,0,VALID,100,VALID,0,VALID,19.617,VALID,357,VALID,0.174219,
2007-11-27, 00:27:00,VALID,918.544,VALID,0,VALID,100,VALID,0,VALID,19.6072,VALID,2,VALID,0,
2007-11-27, 00:28:00,VALID,918.521,VALID,0,VALID,100,VALID,0,VALID,19.597,VALID,3,VALID,0,
2007-11-27, 00:29:00,VALID,918.509,VALID,0,VALID,100,VALID,-0.0339617,VALID,19.5972,VALID,3,VALID,0,
2007-11-27, 00:30:00,VALID,918.502,VALID,0,VALID,100,VALID,0.0169808,VALID,19.5907,VALID,3,VALID,0,
2007-11-27, 00:31:00,VALID,918.505,VALID,0,VALID,100,VALID,-0.0169808,VALID,19.5843,VALID,3,VALID,0,
2007-11-27, 00:32:00,VALID,918.499,VALID,0,VALID,100,VALID,0,VALID,19.5843,VALID,3,VALID,0,
2007-11-27, 00:33:00,VALID,918.49,VALID,0,VALID,100,VALID,-0.0169808,VALID,19.581,VALID,3,VALID,0,
2007-11-27, 00:34:00,VALID,918.489,VALID,0,VALID,100,VALID,-0.0339617,VALID,19.5748,VALID,4,VALID,0.515253,
2007-11-27, 00:35:00,VALID,918.489,VALID,0,VALID,100,VALID,-0.0339617,VALID,19.5653,VALID,5,VALID,0.662109,
2007-11-27, 00:36:00,VALID,918.485,VALID,0,VALID,100,VALID,0,VALID,19.5421,VALID,5,VALID,0.607986,
2007-11-27, 00:37:00,VALID,918.491,VALID,0,VALID,100,VALID,-0.0169808,VALID,19.5259,VALID,4,VALID,0.712652,
2007-11-27, 00:38:00,VALID,918.478,VALID,0,VALID,100,VALID,-0.0169808,VALID,19.5194,VALID,359,VALID,0.768043,
2007-11-27, 00:39:00,VALID,918.457,VALID,0,VALID,100,VALID,-0.0169808,VALID,19.5131,VALID,360,VALID,0.108613,
2007-11-27, 00:40:00,VALID,918.461,VALID,0,VALID,100,VALID,0,VALID,19.5029,VALID,360,VALID,0,
2007-11-27, 00:41:00,VALID,918.438,VALID,0,VALID,100,VALID,-0.0169808,VALID,19.5062,VALID,359,VALID,0.000887784,
2007-11-27, 00:42:00,VALID,918.443,VALID,0,VALID,100,VALID,-0.101885,VALID,19.5144,VALID,357,VALID,0.000181686,
2007-11-27, 00:43:00,VALID,918.425,VALID,0,VALID,100,VALID,-0.0849042,VALID,19.5273,VALID,356,VALID,0,
2007-11-27, 00:44:00,VALID,918.434,VALID,0,VALID,100,VALID,-0.118866,VALID,19.5209,VALID,356,VALID,0,
2007-11-27, 00:45:00,VALID,918.423,VALID,0,VALID,100,VALID,-0.101885,VALID,19.5336,VALID,356,VALID,0,
2007-11-27, 00:46:00,VALID,918.409,VALID,0,VALID,100,VALID,-0.101885,VALID,19.5303,VALID,356,VALID,0,
2007-11-27, 00:47:00,VALID,918.4,VALID,0,VALID,100,VALID,-0.0849042,VALID,19.5106,VALID,356,VALID,0,
2007-11-27, 00:48:00,VALID,918.382,VALID,0,VALID,100,VALID,-0.101885,VALID,19.5206,VALID,356,VALID,0,
2007-11-27, 00:49:00,VALID,918.383,VALID,0,VALID,100,VALID,-0.101885,VALID,19.4984,VALID,356,VALID,0,
2007-11-27, 00:50:00,VALID,918.383,VALID,0,VALID,100,VALID,-0.0849042,VALID,19.4657,VALID,356,VALID,0,
2007-11-27, 00:51:00,VALID,918.399,VALID,0,VALID,100,VALID,-0.0679233,VALID,19.4555,VALID,356,VALID,0,
2007-11-27, 00:52:00,VALID,918.396,VALID,0,VALID,100,VALID,0.0169808,VALID,19.454,VALID,355,VALID,0,
2007-11-27, 00:53:00,VALID,918.4,VALID,0,VALID,100,VALID,0,VALID,19.454,VALID,354,VALID,0,
2007-11-27, 00:54:00,VALID,918.404,VALID,0,VALID,100,VALID,-0.0169808,VALID,19.458,VALID,354,VALID,0,
2007-11-27, 00:55:00,VALID,918.385,VALID,0,VALID,100,VALID,0,VALID,19.441,VALID,354,VALID,0,
2007-11-27, 00:56:00,VALID,918.38,VALID,0,VALID,100,VALID,0,VALID,19.4415,VALID,354,VALID,0,
2007-11-27, 00:57:00,VALID,918.361,VALID,0,VALID,100,VALID,-0.101885,VALID,19.433,VALID,354,VALID,0,
2007-11-27, 00:58:00,VALID,918.341,VALID,0,VALID,100,VALID,-0.101885,VALID,19.423,VALID,354,VALID,0,
2007-11-27, 00:59:00,VALID,918.324,VALID,0,VALID,100,VALID,-0.0849042,VALID,19.3846,VALID,354,VALID,0,
2007-11-27, 01:00:00,VALID,918.329,VALID,0,VALID,100,VALID,-0.0849042,VALID,19.3547,VALID,359,VALID,0.0348837,
2007-11-27, 01:01:00,VALID,918.311,VALID,0,VALID,100,VALID,-0.101885,VALID,19.3579,VALID,10,VALID,0,
2007-11-27, 01:02:00,VALID,918.306,VALID,0,VALID,100,VALID,-0.0679233,VALID,19.3512,VALID,11,VALID,0,
2007-11-27, 01:03:00,VALID,918.299,VALID,0,VALID,100,VALID,-0.0849042,VALID,19.3419,VALID,11,VALID,0,
2007-11-27, 01:04:00,VALID,918.296,VALID,0,VALID,100,VALID,-0.101885,VALID,19.3357,VALID,11,VALID,0,
2007-11-27, 01:05:00,VALID,918.281,VALID,0,VALID,100,VALID,-0.0849042,VALID,19.3389,VALID,11,VALID,0,
2007-11-27, 01:06:00,VALID,918.277,VALID,0,VALID,100,VALID,-0.0849042,VALID,19.3422,VALID,12,VALID,0,
2007-11-27, 01:07:00,VALID,918.262,VALID,0,VALID,100,VALID,-0.101885,VALID,19.3457,VALID,23,VALID,0,
2007-11-27, 01:08:00,VALID,918.235,VALID,0,VALID,100,VALID,-0.101885,VALID,19.3392,VALID,23,VALID,0,
2007-11-27, 01:09:00,VALID,918.219,VALID,0,VALID,100,VALID,-0.118866,VALID,19.332,VALID,25,VALID,0,
2007-11-27, 01:10:00,VALID,918.187,VALID,0,VALID,100,VALID,-0.101885,VALID,19.3489,VALID,25,VALID,0,
2007-11-27, 01:11:00,VALID,918.171,VALID,0,VALID,100,VALID,-0.101885,VALID,19.3452,VALID,25,VALID,0,
2007-11-27, 01:12:00,VALID,918.147,VALID,0,VALID,100,VALID,0.0339617,VALID,19.3437,VALID,25,VALID,0,
2007-11-27, 01:13:00,VALID,918.141,VALID,0,VALID,100,VALID,0,VALID,19.3604,VALID,25,VALID,0,
2007-11-27, 01:14:00,VALID,918.135,VALID,0,VALID,100,VALID,0.0169808,VALID,19.3602,VALID,25,VALID,0,
2007-11-27, 01:15:00,VALID,918.139,VALID,0,VALID,100,VALID,-0.0169808,VALID,19.3632,VALID,25,VALID,0,
2007-11-27, 01:16:00,VALID,918.128,VALID,0,VALID,100,VALID,-0.0169808,VALID,19.3734,VALID,25,VALID,0,
2007-11-27, 01:17:00,VALID,918.133,VALID,0,VALID,100,VALID,0,VALID,19.3829,VALID,25,VALID,0,
2007-11-27, 01:18:00,VALID,918.138,VALID,0,VALID,100,VALID,-0.0169808,VALID,19.3993,VALID,25,VALID,0,
2007-11-27, 01:19:00,VALID,918.14,VALID,0,VALID,100,VALID,0,VALID,19.4056,VALID,25,VALID,0,
2007-11-27, 01:20:00,VALID,918.136,VALID,0,VALID,100,VALID,-0.0169808,VALID,19.4026,VALID,25,VALID,0,
2007-11-27, 01:21:00,VALID,918.149,VALID,0,VALID,100,VALID,-0.0169808,VALID,19.3993,VALID,25,VALID,0,
2007-11-27, 01:22:00,VALID,918.135,VALID,0,VALID,100,VALID,0,VALID,19.4218,VALID,25,VALID,0,
2007-11-27, 01:23:00,VALID,918.118,VALID,0,VALID,100,VALID,-0.0339617,VALID,19.4188,VALID,25,VALID,0,
2007-11-27, 01:24:00,VALID,918.103,VALID,0,VALID,100,VALID,0,VALID,19.4091,VALID,25,VALID,0,
2007-11-27, 01:25:00,VALID,918.095,VALID,0,VALID,100,VALID,-0.0339617,VALID,19.3956,VALID,25,VALID,0,
2007-11-27, 01:26:00,VALID,918.079,VALID,0,VALID,100,VALID,-0.0169808,VALID,19.3794,VALID,25,VALID,0,
2007-11-27, 01:27:00,VALID,918.058,VALID,0,VALID,100,VALID,-0.0339617,VALID,19.3926,VALID,25,VALID,0,
2007-11-27, 01:28:00,VALID,918.045,VALID,0,VALID,100,VALID,0,VALID,19.3602,VALID,27,VALID,0.512649,
2007-11-27, 01:29:00,VALID,918.048,VALID,0,VALID,100,VALID,0,VALID,19.3697,VALID,20,VALID,0.945494,
2007-11-27, 01:30:00,VALID,918.037,VALID,0,VALID,100,VALID,0,VALID,19.3667,VALID,22,VALID,1.00618,
2007-11-27, 01:31:00,VALID,918.041,VALID,0,VALID,100,VALID,0,VALID,19.3632,VALID,23,VALID,0.955669,
2007-11-27, 01:32:00,VALID,918.043,VALID,0,VALID,100,VALID,-0.0169808,VALID,19.3667,VALID,14,VALID,0.907738,
2007-11-27, 01:33:00,VALID,918.029,VALID,0,VALID,100,VALID,-0.0509425,VALID,19.3602,VALID,15,VALID,0.975472,
2007-11-27, 01:34:00,VALID,918.041,VALID,0,VALID,100,VALID,0,VALID,19.3701,VALID,17,VALID,0.551897,
2007-11-27, 01:35:00,VALID,918.023,VALID,0,VALID,100,VALID,-0.0169808,VALID,19.3799,VALID,16,VALID,0.0578835,
2007-11-27, 01:36:00,VALID,918.031,VALID,0,VALID,100,VALID,0,VALID,19.3759,VALID,329,VALID,0.20367,
2007-11-27, 01:37:00,VALID,918.039,VALID,0,VALID,100,VALID,0,VALID,19.3764,VALID,305,VALID,0,
2007-11-27, 01:38:00,VALID,918.028,VALID,0,VALID,100,VALID,0.0169808,VALID,19.3757,VALID,305,VALID,0,
2007-11-27, 01:39:00,VALID,918.013,VALID,0,VALID,100,VALID,0.0339617,VALID,19.3859,VALID,305,VALID,0,
2007-11-27, 01:40:00,VALID,917.997,VALID,0,VALID,100,VALID,0,VALID,19.3956,VALID,305,VALID,0,
2007-11-27, 01:41:00,VALID,917.981,VALID,0,VALID,100,VALID,-0.0169808,VALID,19.4088,VALID,312,VALID,0,
2007-11-27, 01:42:00,VALID,917.966,VALID,0,VALID,100,VALID,-0.0169808,VALID,19.4285,VALID,357,VALID,0.247113,
2007-11-27, 01:43:00,VALID,917.96,VALID,0,VALID,100,VALID,-0.0169808,VALID,19.4415,VALID,19,VALID,0.779762,
2007-11-27, 01:44:00,VALID,917.94,VALID,0,VALID,100,VALID,-0.0509425,VALID,19.4577,VALID,19,VALID,0.639291,
2007-11-27, 01:45:00,VALID,917.937,VALID,0,VALID,100,VALID,-0.0169808,VALID,19.461,VALID,26,VALID,0.862847,
2007-11-27, 01:46:00,VALID,917.917,VALID,0,VALID,100,VALID,-0.0679233,VALID,19.4707,VALID,28,VALID,0.673018,
2007-11-27, 01:47:00,VALID,917.907,VALID,0,VALID,100,VALID,-0.0169808,VALID,19.474,VALID,17,VALID,0.710379,
2007-11-27, 01:48:00,VALID,917.891,VALID,0,VALID,100,VALID,0,VALID,19.4642,VALID,20,VALID,0.961483,
2007-11-27, 01:49:00,VALID,917.875,VALID,0,VALID,100,VALID,-0.0169808,VALID,19.4513,VALID,21,VALID,1.14497,
2007-11-27, 01:50:00,VALID,917.852,VALID,0,VALID,100,VALID,-0.0339617,VALID,19.4513,VALID,17,VALID,0.961719,
2007-11-27, 01:51:00,VALID,917.839,VALID,0,VALID,100,VALID,-0.0169808,VALID,19.4448,VALID,15,VALID,0.975675,
2007-11-27, 01:52:00,VALID,917.833,VALID,0,VALID,100,VALID,-0.0509425,VALID,19.4191,VALID,14,VALID,1.07358,
2007-11-27, 01:53:00,VALID,917.84,VALID,0,VALID,100,VALID,-0.0509425,VALID,19.4126,VALID,12,VALID,0.855564,
2007-11-27, 01:54:00,VALID,917.842,VALID,0,VALID,100,VALID,0,VALID,19.3831,VALID,16,VALID,1.0181,
2007-11-27, 01:55:00,VALID,917.841,VALID,0,VALID,100,VALID,-0.0169808,VALID,19.3734,VALID,14,VALID,1.08814,
2007-11-27, 01:56:00,VALID,917.866,VALID,0,VALID,100,VALID,-0.0169808,VALID,19.3671,VALID,9,VALID,0.985795,
2007-11-27, 01:57:00,VALID,917.872,VALID,0,VALID,100,VALID,-0.0169808,VALID,19.3572,VALID,7,VALID,0.593559,
2007-11-27, 01:58:00,VALID,917.9,VALID,0,VALID,100,VALID,-0.0169808,VALID,19.3572,VALID,8,VALID,0.637607,
2007-11-27, 01:59:00,VALID,917.901,VALID,0,VALID,100,VALID,-0.0509425,VALID,19.3539,VALID,4,VALID,0.585029,
2007-11-27, 02:00:00,VALID,917.89,VALID,0,VALID,100,VALID,-0.0169808,VALID,19.3669,VALID,4,VALID,0.697359,
2007-11-27, 02:01:00,VALID,917.89,VALID,0,VALID,100,VALID,-0.0509425,VALID,19.3704,VALID,4,VALID,0.889863,
2007-11-27, 02:02:00,VALID,917.897,VALID,0,VALID,100,VALID,-0.0509425,VALID,19.3801,VALID,7,VALID,0.599466,
2007-11-27, 02:03:00,VALID,917.891,VALID,0,VALID,100,VALID,0,VALID,19.3926,VALID,11,VALID,0.422057,
2007-11-27, 02:04:00,VALID,917.888,VALID,0,VALID,100,VALID,-0.0169808,VALID,19.3993,VALID,18,VALID,0.564757,
2007-11-27, 02:05:00,VALID,917.891,VALID,0,VALID,100,VALID,-0.0169808,VALID,19.4056,VALID,17,VALID,0.846768,
2007-11-27, 02:06:00,VALID,917.877,VALID,0,VALID,100,VALID,-0.0169808,VALID,19.4158,VALID,7,VALID,0.333097,
2007-11-27, 02:07:00,VALID,917.871,VALID,0,VALID,100,VALID,-0.0169808,VALID,19.4183,VALID,7,VALID,0.0024858,
2007-11-27, 02:08:00,VALID,917.857,VALID,0,VALID,100,VALID,-0.0169808,VALID,19.4448,VALID,7,VALID,0,
2007-11-27, 02:09:00,VALID,917.83,VALID,0,VALID,100,VALID,0,VALID,19.4345,VALID,5,VALID,0,
2007-11-27, 02:10:00,VALID,917.815,VALID,0,VALID,100,VALID,0,VALID,19.4283,VALID,336,VALID,0.311592,
2007-11-27, 02:11:00,VALID,917.814,VALID,0,VALID,100,VALID,0,VALID,19.4218,VALID,333,VALID,0.114702,
2007-11-27, 02:12:00,VALID,917.811,VALID,0,VALID,100,VALID,-0.0679233,VALID,19.4063,VALID,326,VALID,0.00815972,
2007-11-27, 02:13:00,VALID,917.813,VALID,0,VALID,100,VALID,-0.0679233,VALID,19.3968,VALID,309,VALID,0.161156,
2007-11-27, 02:14:00,VALID,917.8,VALID,0,VALID,100,VALID,-0.0679233,VALID,19.4008,VALID,323,VALID,0.00114329,
2007-11-27, 02:15:00,VALID,917.8,VALID,0,VALID,100,VALID,-0.0679233,VALID,19.4063,VALID,323,VALID,0,
2007-11-27, 02:16:00,VALID,917.796,VALID,0,VALID,100,VALID,-0.0509425,VALID,19.4161,VALID,323,VALID,0,
2007-11-27, 02:17:00,VALID,917.793,VALID,0,VALID,100,VALID,-0.0509425,VALID,19.4203,VALID,303,VALID,0.0327035,
2007-11-27, 02:18:00,VALID,917.794,VALID,0,VALID,100,VALID,-0.0509425,VALID,19.4033,VALID,284,VALID,0.0247396,
2007-11-27, 02:19:00,VALID,917.779,VALID,0,VALID,100,VALID,-0.0169808,VALID,19.4228,VALID,284,VALID,0,
2007-11-27, 02:20:00,VALID,917.769,VALID,0,VALID,100,VALID,-0.0339617,VALID,19.4255,VALID,284,VALID,0,
2007-11-27, 02:21:00,VALID,917.748,VALID,0,VALID,100,VALID,-0.0679233,VALID,19.4388,VALID,284,VALID,0,
2007-11-27, 02:22:00,VALID,917.729,VALID,0,VALID,100,VALID,-0.0339617,VALID,19.4448,VALID,284,VALID,0,
2007-11-27, 02:23:00,VALID,917.719,VALID,0,VALID,100,VALID,-0.0169808,VALID,19.4784,VALID,284,VALID,0,
2007-11-27, 02:24:00,VALID,917.682,VALID,0,VALID,100,VALID,-0.0169808,VALID,19.4645,VALID,284,VALID,0,
2007-11-27, 02:25:00,VALID,917.657,VALID,0,VALID,100,VALID,-0.0509425,VALID,19.4682,VALID,286,VALID,0,
2007-11-27, 02:26:00,VALID,917.626,VALID,0,VALID,100,VALID,0,VALID,19.4577,VALID,325,VALID,0,
2007-11-27, 02:27:00,VALID,917.606,VALID,0,VALID,100,VALID,-0.0169808,VALID,19.4353,VALID,335,VALID,0.0254836,
2007-11-27, 02:28:00,VALID,917.579,VALID,0,VALID,100,VALID,-0.0339617,VALID,19.3996,VALID,19,VALID,0.533482,
2007-11-27, 02:29:00,VALID,917.577,VALID,0,VALID,100,VALID,-0.0169808,VALID,19.433,VALID,20,VALID,0.0375744,
2007-11-27, 02:30:00,VALID,917.565,VALID,0,VALID,100,VALID,0,VALID,19.4455,VALID,16,VALID,0.135603,
2007-11-27, 02:31:00,VALID,917.553,VALID,0,VALID,100,VALID,-0.0509425,VALID,19.452,VALID,10,VALID,0.119234,
2007-11-27, 02:32:00,VALID,917.548,VALID,0,VALID,100,VALID,-0.0339617,VALID,19.4745,VALID,10,VALID,0,
2007-11-27, 02:33:00,VALID,917.552,VALID,0,VALID,100,VALID,-0.0339617,VALID,19.4972,VALID,10,VALID,0,
2007-11-27, 02:34:00,VALID,917.547,VALID,0,VALID,100,VALID,-0.0679233,VALID,19.5428,VALID,10,VALID,0,
2007-11-27, 02:35:00,VALID,917.55,VALID,0,VALID,100,VALID,-0.0339617,VALID,19.5391,VALID,10,VALID,0,
2007-11-27, 02:36:00,VALID,917.532,VALID,0,VALID,100,VALID,-0.0679233,VALID,19.5526,VALID,10,VALID,0,
2007-11-27, 02:37:00,VALID,917.517,VALID,0,VALID,100,VALID,-0.0679233,VALID,19.5561,VALID,14,VALID,0.228379,
2007-11-27, 02:38:00,VALID,917.495,VALID,0,VALID,100,VALID,-0.0169808,VALID,19.5328,VALID,16,VALID,1.53143,
2007-11-27, 02:39:00,VALID,917.47,VALID,0,VALID,100,VALID,-0.0509425,VALID,19.5556,VALID,5,VALID,0.905903,
2007-11-27, 02:40:00,VALID,917.468,VALID,0,VALID,100,VALID,-0.0339617,VALID,19.5878,VALID,9,VALID,0.625545,
2007-11-27, 02:41:00,VALID,917.433,VALID,0,VALID,100,VALID,-0.0169808,VALID,19.6112,VALID,9,VALID,0.109947,
2007-11-27, 02:42:00,VALID,917.432,VALID,0,VALID,99.9463,VALID,-0.0339617,VALID,19.6269,VALID,9,VALID,0.00181686,
2007-11-27, 02:43:00,VALID,917.415,VALID,0,VALID,99.7815,VALID,-0.0339617,VALID,19.617,VALID,9,VALID,0,
2007-11-27, 02:44:00,VALID,917.411,VALID,0,VALID,99.7587,VALID,-0.0509425,VALID,19.6174,VALID,9,VALID,0,
2007-11-27, 02:45:00,VALID,917.396,VALID,0,VALID,99.5895,VALID,-0.0679233,VALID,19.6209,VALID,9,VALID,0,
2007-11-27, 02:46:00,VALID,917.383,VALID,0,VALID,99.5819,VALID,-0.0509425,VALID,19.6212,VALID,9,VALID,0,
2007-11-27, 02:47:00,VALID,917.368,VALID,0,VALID,99.6162,VALID,-0.0679233,VALID,19.6342,VALID,9,VALID,0,
2007-11-27, 02:48:00,VALID,917.388,VALID,0,VALID,99.5183,VALID,-0.0679233,VALID,19.6209,VALID,9,VALID,0,
2007-11-27, 02:49:00,VALID,917.387,VALID,0,VALID,99.5514,VALID,-0.0339617,VALID,19.6212,VALID,9,VALID,0,
2007-11-27, 02:50:00,VALID,917.381,VALID,0,VALID,99.6315,VALID,-0.0509425,VALID,19.6339,VALID,9,VALID,0,
2007-11-27, 02:51:00,VALID,917.393,VALID,0,VALID,99.4814,VALID,-0.101885,VALID,19.6107,VALID,9,VALID,0.40625,
2007-11-27, 02:52:00,VALID,917.384,VALID,0,VALID,99.5298,VALID,-0.0679233,VALID,19.6107,VALID,32,VALID,0.175223,
2007-11-27, 02:53:00,VALID,917.363,VALID,0,VALID,99.5704,VALID,-0.0849042,VALID,19.6145,VALID,33,VALID,0,
2007-11-27, 02:54:00,VALID,917.348,VALID,0,VALID,99.5425,VALID,-0.0679233,VALID,19.6075,VALID,33,VALID,0,
2007-11-27, 02:55:00,VALID,917.342,VALID,0,VALID,99.4471,VALID,-0.0679233,VALID,19.5845,VALID,31,VALID,0,
2007-11-27, 02:56:00,VALID,917.334,VALID,0,VALID,99.395,VALID,-0.0679233,VALID,19.5688,VALID,27,VALID,0,
2007-11-27, 02:57:00,VALID,917.345,VALID,0,VALID,99.414,VALID,-0.0509425,VALID,19.5491,VALID,27,VALID,0,
2007-11-27, 02:58:00,VALID,917.346,VALID,0,VALID,99.4115,VALID,-0.0339617,VALID,19.5328,VALID,27,VALID,0,
2007-11-27, 02:59:00,VALID,917.349,VALID,0,VALID,99.353,VALID,0,VALID,19.5064,VALID,25,VALID,0.063244,
2007-11-27, 03:00:00,VALID,917.338,VALID,0,VALID,99.3759,VALID,-0.0509425,VALID,19.4839,VALID,20,VALID,0.402876,
2007-11-27, 03:01:00,VALID,917.311,VALID,0,VALID,99.395,VALID,-0.0169808,VALID,19.4582,VALID,17,VALID,0.783975,
2007-11-27, 03:02:00,VALID,917.3,VALID,0,VALID,99.3924,VALID,0,VALID,19.4255,VALID,17,VALID,1.03706,
2007-11-27, 03:03:00,VALID,917.271,VALID,0,VALID,99.4853,VALID,-0.0169808,VALID,19.4001,VALID,16,VALID,1.12324,
2007-11-27, 03:04:00,VALID,917.263,VALID,0,VALID,99.5844,VALID,-0.0169808,VALID,19.3929,VALID,12,VALID,1.2252,
2007-11-27, 03:05:00,VALID,917.252,VALID,0,VALID,99.5704,VALID,0,VALID,19.3861,VALID,11,VALID,1.39187,
2007-11-27, 03:06:00,VALID,917.23,VALID,0,VALID,99.5641,VALID,0,VALID,19.3701,VALID,15,VALID,1.25493,
2007-11-27, 03:07:00,VALID,917.203,VALID,0,VALID,99.587,VALID,-0.0509425,VALID,19.3412,VALID,12,VALID,1.24509,
2007-11-27, 03:08:00,VALID,917.18,VALID,0,VALID,99.6061,VALID,-0.0509425,VALID,19.3185,VALID,11,VALID,1.01042,
2007-11-27, 03:09:00,VALID,917.154,VALID,0,VALID,99.6048,VALID,-0.0679233,VALID,19.2955,VALID,8,VALID,0.830078,
2007-11-27, 03:10:00,VALID,917.142,VALID,0,VALID,99.6709,VALID,-0.0679233,VALID,19.296,VALID,358,VALID,0.872869,
2007-11-27, 03:11:00,VALID,917.136,VALID,0,VALID,99.8082,VALID,-0.0339617,VALID,19.2963,VALID,334,VALID,0.0866642,
2007-11-27, 03:12:00,VALID,917.11,VALID,0,VALID,99.957,VALID,-0.0509425,VALID,19.3025,VALID,17,VALID,0.417969,
2007-11-27, 03:13:00,VALID,917.118,VALID,0,VALID,99.999,VALID,-0.0169808,VALID,19.3155,VALID,4,VALID,0.702398,
2007-11-27, 03:14:00,VALID,917.134,VALID,0,VALID,99.957,VALID,-0.0169808,VALID,19.3088,VALID,14,VALID,0.306076,
2007-11-27, 03:15:00,VALID,917.15,VALID,0,VALID,99.9944,VALID,-0.0169808,VALID,19.2988,VALID,15,VALID,0.195313,
2007-11-27, 03:16:00,VALID,917.171,VALID,0,VALID,99.985,VALID,0,VALID,19.2925,VALID,15,VALID,0,
2007-11-27, 03:17:00,VALID,917.174,VALID,0,VALID,99.9303,VALID,-0.0339617,VALID,19.2698,VALID,15,VALID,0,
2007-11-27, 03:18:00,VALID,917.172,VALID,0,VALID,99.8833,VALID,-0.0169808,VALID,19.2341,VALID,15,VALID,0.0509673,
2007-11-27, 03:19:00,VALID,917.161,VALID,0,VALID,99.9468,VALID,-0.0679233,VALID,19.2217,VALID,15,VALID,0.627378,
2007-11-27, 03:20:00,VALID,917.133,VALID,0,VALID,99.9507,VALID,-0.0339617,VALID,19.1822,VALID,15,VALID,0.53404,
2007-11-27, 03:21:00,VALID,917.111,VALID,0,VALID,99.988,VALID,-0.0339617,VALID,19.1528,VALID,15,VALID,0.369549,
2007-11-27, 03:22:00,VALID,917.094,VALID,0,VALID,100,VALID,-0.0509425,VALID,19.1563,VALID,15,VALID,0.561228,
2007-11-27, 03:23:00,VALID,917.081,VALID,0,VALID,100,VALID,-0.0679233,VALID,19.1563,VALID,15,VALID,0.176962,
2007-11-27, 03:24:00,VALID,917.082,VALID,0,VALID,100,VALID,-0.0339617,VALID,19.16,VALID,20,VALID,0.240734,
2007-11-27, 03:25:00,VALID,917.077,VALID,0,VALID,100,VALID,-0.0509425,VALID,19.1498,VALID,21,VALID,0.127539,
2007-11-27, 03:26:00,VALID,917.088,VALID,0,VALID,100,VALID,-0.0679233,VALID,19.1595,VALID,24,VALID,0.55814,
2007-11-27, 03:27:00,VALID,917.081,VALID,0,VALID,99.998,VALID,-0.0849042,VALID,19.173,VALID,36,VALID,0.960574,
2007-11-27, 03:28:00,VALID,917.078,VALID,0,VALID,99.8909,VALID,-0.0679233,VALID,19.1955,VALID,36,VALID,0.824505,
2007-11-27, 03:29:00,VALID,917.095,VALID,0,VALID,99.723,VALID,-0.0679233,VALID,19.1855,VALID,34,VALID,0.874455,
2007-11-27, 03:30:00,VALID,917.104,VALID,0,VALID,99.7269,VALID,-0.0849042,VALID,19.2117,VALID,28,VALID,0.770647,
2007-11-27, 03:31:00,VALID,917.106,VALID,0,VALID,99.6022,VALID,-0.0509425,VALID,19.2409,VALID,30,VALID,0.67168,
2007-11-27, 03:32:00,VALID,917.116,VALID,0,VALID,99.4382,VALID,-0.0509425,VALID,19.2469,VALID,32,VALID,0.0993056,
2007-11-27, 03:33:00,VALID,917.118,VALID,0,VALID,99.2856,VALID,-0.0849042,VALID,19.2346,VALID,32,VALID,0,
2007-11-27, 03:34:00,VALID,917.112,VALID,0,VALID,99.3263,VALID,-0.101885,VALID,19.2449,VALID,35,VALID,0,
2007-11-27, 03:35:00,VALID,917.111,VALID,0,VALID,99.2704,VALID,-0.0679233,VALID,19.2114,VALID,35,VALID,0,
2007-11-27, 03:36:00,VALID,917.105,VALID,0,VALID,99.3238,VALID,-0.0679233,VALID,19.2144,VALID,35,VALID,0,
2007-11-27, 03:37:00,VALID,917.107,VALID,0,VALID,99.3161,VALID,-0.0169808,VALID,19.2311,VALID,35,VALID,0,
2007-11-27, 03:38:00,VALID,917.106,VALID,0,VALID,99.264,VALID,-0.0339617,VALID,19.2244,VALID,44,VALID,0,
2007-11-27, 03:39:00,VALID,917.091,VALID,0,VALID,99.4001,VALID,-0.0679233,VALID,19.2633,VALID,54,VALID,0,
2007-11-27, 03:40:00,VALID,917.08,VALID,0,VALID,99.1788,VALID,-0.0679233,VALID,19.2763,VALID,53,VALID,0,
2007-11-27, 03:41:00,VALID,917.085,VALID,0,VALID,98.8787,VALID,-0.0679233,VALID,19.2469,VALID,51,VALID,0,
2007-11-27, 03:42:00,VALID,917.053,VALID,0,VALID,98.6409,VALID,-0.0339617,VALID,19.1952,VALID,51,VALID,0,
2007-11-27, 03:43:00,VALID,917.043,VALID,0,VALID,98.6396,VALID,-0.0849042,VALID,19.1403,VALID,51,VALID,0,
2007-11-27, 03:44:00,VALID,917.011,VALID,0,VALID,98.7884,VALID,-0.0509425,VALID,19.1269,VALID,38,VALID,0,